Regional Weather Roundup
Issued by NWS

Home | Current Version | Previous Version | Text Only | Print | Product List | Glossary On
Versions: 1 2 3 4 5 6 7 8 9 10 11 12 13 14 15 16 17 18 19 20 21 22 23 24 25 26 27
000
ASUS45 KSLC 241210
RWRUT

UTAH REGIONAL WEATHER ROUNDUP
NATIONAL WEATHER SERVICE SALT LAKE CITY UT
500 AM MST FRI NOV 24 2017

UTZ001>011-023>025-241300-

NORTHERN UTAH

CITY           SKY/WX    TMP DP  RH WIND       PRES   REMARKS
BRIGHAM CITY   PTCLDY    41  37  87 CALM      29.96F
HILL AFB       CLEAR     52  36  55 CALM      29.97S
LOGAN          CLEAR     46  38  73 N8        29.95S
OGDEN          CLEAR     47  39  74 S8        29.95F
SALT LAKE CITY PTCLDY    47  44  90 W7        29.96S
TOOELE VALLEY  PTCLDY    37  36  93 N3        29.97S FOG
WENDOVER       PTCLDY    35  28  75 CALM      29.98F
HEBER CITY       N/A     37  34  87 CALM      29.98F
WEST JORDAN    PTCLDY    53  37  53 SE5       29.98R

$$

UTZ011>015-024>027-241300-

CENTRAL/NORTHEAST UTAH

CITY           SKY/WX    TMP DP  RH WIND       PRES   REMARKS
PROVO AIRPORT  CLOUDY    49  37  63 E3        29.99F
MOAB/CANYONLAN MOCLDY    36  27  69 CALM      30.07R
DELTA          CLOUDY    48  32  53 SW6       30.02R
PRICE          MOCLDY    36  31  82 N3        30.08F
RICHFIELD      CLEAR     39  34  81 CALM      30.06F
ROOSEVELT      CLOUDY    30  27  86 CALM      30.05S
VERNAL         CLOUDY    31  27  85 CALM      30.03S

$$

UTZ013>016-019>022-027-241300-

SOUTHERN UTAH

CITY           SKY/WX    TMP DP  RH WIND       PRES   REMARKS
BRYCE CANYON   PTCLDY    23  17  78 W6        30.20F WCI  16
CEDAR CITY     MOCLDY    44  21  40 SE10      30.08F
MILFORD        MOCLDY    53  28  38 SW16      30.04F
ST GEORGE      CLOUDY    44  30  57 NW7       30.06R
HANKSVILLE     MOCLDY    28  19  69 CALM      30.08F
KANAB          CLEAR     32  25  74 NE5       30.14F WCI  27
BLANDING         N/A     42  30  62 CALM      30.21S

$$

REGIONAL REPORTS     COLORADO/ARIZONA

CITY           SKY/WX    TMP DP  RH WIND       PRES   REMARKS
CRAIG, CO      CLOUDY    33  30  88 CALM      30.05F
GRAND JUNCTION CLOUDY    39  33  79 S5        30.07F
RIFLE, CO      CLOUDY    35  33  92 E6        30.10F WCI  30
MONTROSE, CO   CLOUDY    30  24  78 SE6       30.14R WCI  24
CORTEZ, CO     CLOUDY    24  20  84 S3        30.15F
COLORADO CITY    N/A     32  27  80 SE5       30.11F WCI  27
PAGE, AZ       PTCLDY    42  31  64 CALM      30.09S
GRAND CANYON   PTCLDY    25  13  60 E3        30.20S
KINGMAN, AZ    CLEAR     46  28  49 S5        30.02F
FLAGSTAFF, AZ  PTCLDY    29  21  72 CALM      30.21F

$$

REGIONAL REPORTS    NEVADA/IDAHO/WYOMING

CITY           SKY/WX    TMP DP  RH WIND       PRES   REMARKS
LAS VEGAS, NV  PTCLDY    55  36  48 CALM      29.96S
ELY, NY        CLEAR     35  22  58 SE3       30.11S
ELKO, NV       CLEAR     37  32  82 CALM      30.03S
POCATELLO, ID  PTCLDY    47  38  71 SW16      29.94S
BURLEY, ID     CLOUDY    50  41  71 SW7       29.94S
FORT BRIDGER,    N/A     43  31  61 W8        30.04S
EVANSTON, WY   CLEAR     42  30  62 W12       30.01F
ROCK SPRINGS,  CLOUDY    41  30  65 SW9       29.99F
KEMMERER, WY   CLEAR     37  32  81 SW8       30.00F WCI  31

$$




USA.gov is the U.S. government's official web portal to all federal, state and local government web resources and services.